Regional Weather Roundup
Issued by NWS Upton, NY

Current Version | Previous Version | Graphics & Text | Print | Product List | Glossary Off
Versions: 1 2 3 4 5 6 7 8 9 10 11 12 13 14 15 16 17 18 19 20 21 22 23 24 25 26 27 28 29 30 31 32 33 34 35 36 37 38 39 40 41 42 43 44 45 46 47 48 49 50

000
ASUS41 KOKX 230409
RWROKX

REGIONAL WEATHER ROUNDUP
NATIONAL WEATHER SERVICE NEW YORK NY
1100 PM EST WED FEB 22 2017

NOTE: "FAIR" INDICATES FEW OR NO CLOUDS BELOW 12,000 FEET WITH NO
SIGNIFICANT WEATHER AND/OR OBSTRUCTIONS TO VISIBILITY.

NYZ071-072-176-178-NJZ106-104-230500-
NEW YORK CITY METRO AREA

CITY           SKY/WX    TMP DP  RH WIND       PRES   REMARKS
Central Park   CLOUDY    51  42  71 CALM      29.91F
Wall St Helipt NOT AVBL
LaGuardia APRT CLOUDY    49  42  77 CALM      29.88F
Kennedy INTL   CLOUDY    42  42 100 SE3       29.91F
Breezy Point     N/A     43 N/A N/A E2          N/A
Newark/Liberty CLOUDY    49  41  74 S3        29.89F
Teterboro      CLOUDY    48  39  71 CALM      29.89F
$$

NYZ177-179-078>081-230500-
LONG ISLAND NEW YORK

CITY           SKY/WX    TMP DP  RH WIND       PRES   REMARKS
Jones Beach      N/A     43 N/A N/A S1          N/A
Matinecock PT  NOT AVBL
Farmingdale    CLOUDY    42  41  96 S3        29.90F FOG
MacArthur/ISP  FOG       42  42 100 SW3       29.90F VSB 1/4
Shirley        FOG       43  43 100 S3        29.91F VSB 1/4
Westhampton    FOG       43  42  97 S3        29.92F VSB 1/4
Southampton    NOT AVBL
Bridgehampton  NOT AVBL
East Hampton   FOG       42  41  99 SW3       29.91S VSB 3/4
Montauk          N/A     43  43 100 S3        29.93S
$$

NYZ052-065-067-230500-
HUDSON VALLEY

CITY           SKY/WX    TMP DP  RH WIND       PRES   REMARKS
White Plains   CLEAR     39  35  86 NW5       29.88F
Newburgh       PTCLDY    41  37  87 CALM      29.88F
Montgomery     CLEAR     35  32  88 N5        29.87F WCI  31
Poughkeepsie   CLEAR     36  34  92 CALM      29.88F
Albany         PTCLDY    47  35  63 S7        29.86F
$$

NJZ001-105-106-008-010-013-015-019>022-104-230500-
NEW JERSEY

CITY           SKY/WX    TMP DP  RH WIND       PRES   REMARKS
Newark/Liberty CLOUDY    49  41  74 S3        29.89F
Teterboro      CLOUDY    48  39  71 CALM      29.89F
Caldwell       CLEAR     43  37  79 CALM      29.90F
Somerville     CLOUDY    39  36  89 CALM      29.88F
Linden         NOT AVBL
Sussex         CLEAR     36  35  96 CALM      29.88F
Andover          N/A     37  35  92 CALM      29.88F
Trenton        PTCLDY    50  42  74 SW3       29.90F
Millville      PTCLDY   N/A N/A N/A CALM      29.92S
Atlantic City  CLOUDY    45  42  89 CALM      29.92F
Wrightstown    CLOUDY    43  41  91 SW5       29.88F
Toms River     CLOUDY    42  41  96 CALM      29.92F FOG
Belmar         CLEAR     48  45  89 SW6       29.91F
$$

PAZ047>061-062-071-230500-
EASTERN PENNSYLVANIA

CITY           SKY/WX    TMP DP  RH WIND       PRES   REMARKS
Philadelphia   MOCLDY    47  44  90 W6        29.92S
Allentown      CLEAR     42  36  79 CALM      29.90S
Scranton       CLEAR     43  38  82 CALM      29.87S
$$

CTZ002-004>006-009-010-012-RIZ004-006-007-MAZ004-011-015-230500-
SOUTHERN NEW ENGLAND
 IN CT

CITY           SKY/WX    TMP DP  RH WIND       PRES   REMARKS
Bradley INTL   CLEAR     41  36  82 S6        29.89S
Hartford       CLEAR     42  36  79 S3        29.89F
Danbury        PTCLDY    36  33  89 CALM      29.89F
Wtrbury/Oxford PTCLDY    41  36  81 CALM      29.89F
Bridgeport     CLEAR     39  35  86 SE3       29.90F
Meriden        CLEAR     37  33  85 CALM      29.89F
New Haven      CLEAR     36  33  89 CALM      29.90F
Chester          N/A     41  37  87 MISG      29.89F
Groton         CLEAR     38  36  92 CALM      29.91S
Wilimantic     CLEAR     36  33  89 CALM      29.91S

 IN RI

CITY           SKY/WX    TMP DP  RH WIND       PRES   REMARKS
Providence     PTCLDY    38  35  89 S5        29.90S WCI  34
Block Island   FOG       44  43  96 SW14      29.91F VSB 1/4
Westerly       PTCLDY    37  32  82 CALM      29.91F
 IN MA

CITY           SKY/WX    TMP DP  RH WIND       PRES   REMARKS
Boston         CLEAR     41  37  86 S6        29.88F
Worcester      CLEAR     43  33  68 SW9       29.86F
Westfield      CLEAR     36  32  85 CALM      29.88S
Provincetown   CLEAR     40  37  89 S10       29.90F WCI  33
Nantucket      CLOUDY    42  40  92 SW6       29.92F
$$

ANZ330-335-338-340-345-350-353-355-230500-
COASTAL MARINE OBSERVATIONS


STATION/POSITION TIME  SKY/WX   TEMP    WIND        PRES    VSBY  WAVE
                                AIR SEA DIR/SP/G                  HT/PER
                 (UTC)          (F)     (DEG/KT/KT) (MB)    (MI)  (FT/S)
NY HARB ENTRANCE 0250            44 42  200/  6/  8 1012.8          2/10
20 S FIRE ISLAND 0350            44 43  220/  8/ 10 1012.6          3/10
GREAT SOUTH BAY  NOT AVBL
23 SSW MONTAUK P 0250            45 44              1013.8          3/10
15 E BARNEGAT LI 0330               42                N/A           3/ 9
HUDSON CANYON    0250               49              1013.4          3/ 9
KINGS POINT      0348            47 38              1012.0
EXECUTION ROCKS  NOT AVBL
CENTRAL LI SOUND 0330            42     200/  4/  6   N/A           0
EASTERN LI SOUND NOT AVBL
ROBBINS REEF     0348            48     180/  4/  5 1012.6
$$


>>>>>>>>>>>>>>>>>>>>>>>>>>>> KEY <<<<<<<<<<<<<<<<<<<<<<<<<<<
>                                                          <
>     SKY/WX - Sky Condition/Present Weather               <
>     TMP    - Temperature in Fahrenheit                   <
>     DP     - Dew Point in Fahrenheit                     <
>     RH     - Relative Humidity in Percent                <
>     WIND   - Direction (from) and Speed in MPH           <
>     PRES   - Mean Sea Level Pressure (inches of Hg)      <
>     WCI    - Wind Chill Index                            <
>     VSB    - VISIBILITY IN MILES                         <
>     HX     - HEAT INDEX                                  <
>     TC     - TEMPERATURE IN CELSIUS                      <
>     VRB    - VARIABLE WIND DIRECTION                     <
>                                                          <
>>>>>>>>>>>>>>>>>>>>>>>>>>>> KEY <<<<<<<<<<<<<<<<<<<<<<<<<<<



USA.gov is the U.S. government's official web portal to all federal, state and local government web resources and services.